Time,TemperatureF,DewpointF,PressureIn,WindDirection,WindDirectionDegrees,WindSpeedMPH,WindSpeedGustMPH,Humidity,HourlyPrecipIn,Conditions,Clouds,dailyrainin,SoftwareType,DateUTC
2013-07-28 00:07:00,76.6,73.4,29.85,SSW,203,1.0,6.0,90,0.00,,,0.00,meteohub,2013-07-27 22:07:00,
2013-07-28 00:23:00,76.5,73.2,29.85,SW,225,3.0,4.0,90,0.00,,,0.00,meteohub,2013-07-27 22:23:00,
2013-07-28 00:38:00,76.3,73.4,29.85,SSW,203,4.0,7.0,91,0.00,,,0.00,meteohub,2013-07-27 22:38:00,
2013-07-28 00:53:00,76.3,73.4,29.85,SW,225,5.0,6.0,91,0.00,,,0.00,meteohub,2013-07-27 22:53:00,
2013-07-28 01:08:00,76.1,73.2,29.85,SW,225,4.0,7.0,91,0.00,,,0.00,meteohub,2013-07-27 23:08:00,
2013-07-28 01:24:00,75.7,73.2,29.85,SW,225,5.0,8.0,92,0.00,,,0.00,meteohub,2013-07-27 23:24:00,
2013-07-28 01:39:00,75.7,73.2,29.85,SW,225,4.0,7.0,92,0.00,,,0.00,meteohub,2013-07-27 23:39:00,
2013-07-28 01:55:00,75.7,73.2,29.86,SW,225,4.0,6.0,92,0.00,,,0.00,meteohub,2013-07-27 23:55:00,
2013-07-28 02:10:00,75.7,73.2,29.85,SW,225,3.0,4.0,92,0.00,,,0.00,meteohub,2013-07-28 00:10:00,
2013-07-28 02:25:00,75.7,73.2,29.85,SW,225,2.0,5.0,92,0.00,,,0.00,meteohub,2013-07-28 00:25:00,
2013-07-28 02:40:00,75.7,73.2,29.86,SW,225,3.0,4.0,92,0.00,,,0.00,meteohub,2013-07-28 00:40:00,
2013-07-28 02:57:00,75.7,73.2,29.85,SW,225,2.0,6.0,92,0.00,,,0.00,meteohub,2013-07-28 00:57:00,
2013-07-28 03:12:00,75.6,73.0,29.84,SW,225,4.0,6.0,92,0.00,,,0.00,meteohub,2013-07-28 01:12:00,
2013-07-28 03:27:00,75.6,73.0,29.84,SW,225,2.0,4.0,92,0.00,,,0.00,meteohub,2013-07-28 01:27:00,
2013-07-28 03:42:00,75.6,73.0,29.84,West,270,1.0,5.0,92,0.00,,,0.00,meteohub,2013-07-28 01:42:00,
2013-07-28 03:57:00,75.2,72.7,29.84,West,270,1.0,3.0,92,0.00,,,0.00,meteohub,2013-07-28 01:57:00,
2013-07-28 04:13:00,75.2,72.7,29.84,WSW,248,2.0,3.0,92,0.00,,,0.00,meteohub,2013-07-28 02:13:00,
2013-07-28 04:29:00,75.2,72.7,29.84,WSW,248,1.0,2.0,92,0.00,,,0.00,meteohub,2013-07-28 02:29:00,
2013-07-28 04:44:00,74.8,72.3,29.83,SW,225,2.0,3.0,92,0.00,,,0.00,meteohub,2013-07-28 02:44:00,
2013-07-28 04:59:00,74.8,72.3,29.83,SW,225,2.0,-999.0,92,0.00,,,0.00,meteohub,2013-07-28 02:59:00,
2013-07-28 05:14:00,74.7,72.1,29.83,WSW,248,1.0,4.0,92,0.00,,,0.00,meteohub,2013-07-28 03:14:00,
2013-07-28 05:30:00,74.5,72.0,29.83,West,270,1.0,2.0,92,0.00,,,0.00,meteohub,2013-07-28 03:30:00,
2013-07-28 05:46:00,74.1,72.0,29.83,SW,225,2.0,4.0,92,0.00,,,0.00,meteohub,2013-07-28 03:46:00,
2013-07-28 06:01:00,74.5,72.0,29.83,SW,225,2.0,4.0,92,0.00,,,0.00,meteohub,2013-07-28 04:01:00,
2013-07-28 06:16:00,74.1,71.6,29.84,SSW,203,2.0,4.0,92,0.00,,,0.00,meteohub,2013-07-28 04:16:00,
2013-07-28 06:32:00,73.6,71.4,29.85,SW,225,3.0,6.0,93,0.00,,,0.00,meteohub,2013-07-28 04:32:00,
2013-07-28 06:47:00,73.2,71.1,29.86,SSW,203,3.0,6.0,93,0.00,,,0.00,meteohub,2013-07-28 04:47:00,
2013-07-28 07:03:00,73.2,71.1,29.86,SW,225,3.0,7.0,93,0.00,,,0.00,meteohub,2013-07-28 05:03:00,
2013-07-28 07:18:00,73.2,71.1,29.86,SW,225,4.0,7.0,93,0.00,,,0.00,meteohub,2013-07-28 05:18:00,
2013-07-28 07:33:00,73.6,71.1,29.86,SW,225,4.0,8.0,92,0.00,,,0.00,meteohub,2013-07-28 05:33:00,
2013-07-28 07:48:00,73.9,71.1,29.87,SW,225,5.0,8.0,91,0.00,,,0.00,meteohub,2013-07-28 05:48:00,
2013-07-28 08:04:00,74.1,71.2,29.87,SW,225,4.0,9.0,91,0.00,,,0.00,meteohub,2013-07-28 06:04:00,
2013-07-28 08:19:00,74.1,71.2,29.87,SW,225,4.0,-999.0,91,0.00,,,0.00,meteohub,2013-07-28 06:19:00,
2013-07-28 08:35:00,75.7,72.7,29.88,SW,225,4.0,8.0,90,0.00,,,0.00,meteohub,2013-07-28 06:35:00,
2013-07-28 08:50:00,76.3,72.9,29.88,SSW,203,6.0,10.0,89,0.00,,,0.00,meteohub,2013-07-28 06:50:00,
2013-07-28 09:06:00,77.2,72.9,29.88,SW,225,7.0,10.0,86,0.00,,,0.00,meteohub,2013-07-28 07:06:00,
2013-07-28 09:22:00,77.5,72.5,29.89,SW,225,7.0,9.0,84,0.00,,,0.00,meteohub,2013-07-28 07:22:00,
2013-07-28 09:37:00,78.3,72.1,29.89,WSW,248,5.0,9.0,81,0.00,,,0.00,meteohub,2013-07-28 07:37:00,
2013-07-28 09:52:00,79.3,72.0,29.88,WSW,248,2.0,9.0,78,0.00,,,0.00,meteohub,2013-07-28 07:52:00,
2013-07-28 10:07:00,79.9,72.3,29.88,SW,225,2.0,7.0,78,0.00,,,0.00,meteohub,2013-07-28 08:07:00,
2013-07-28 10:22:00,81.7,73.0,29.89,SSW,203,5.0,11.0,75,0.00,,,0.00,meteohub,2013-07-28 08:22:00,
2013-07-28 10:38:00,82.2,72.9,29.89,SSW,203,5.0,10.0,73,0.00,,,0.00,meteohub,2013-07-28 08:38:00,
2013-07-28 10:53:00,83.3,72.9,29.89,South,180,4.0,10.0,70,0.00,,,0.00,meteohub,2013-07-28 08:53:00,
2013-07-28 11:10:00,83.5,72.5,29.89,South,180,4.0,8.0,69,0.00,,,0.00,meteohub,2013-07-28 09:10:00,
2013-07-28 11:26:00,84.7,72.5,29.89,SSW,203,4.0,8.0,67,0.00,,,0.00,meteohub,2013-07-28 09:26:00,
2013-07-28 11:41:00,85.3,72.5,29.90,South,180,4.0,7.0,65,0.00,,,0.00,meteohub,2013-07-28 09:41:00,
2013-07-28 11:57:00,86.0,72.1,29.89,South,180,4.0,12.0,63,0.00,,,0.00,meteohub,2013-07-28 09:57:00,
2013-07-28 12:12:00,86.7,71.8,29.90,South,180,5.0,14.0,61,0.00,,,0.00,meteohub,2013-07-28 10:12:00,
2013-07-28 12:27:00,87.1,72.1,29.90,SSW,203,8.0,12.0,61,0.00,,,0.00,meteohub,2013-07-28 10:27:00,
2013-07-28 12:43:00,86.9,72.0,29.90,South,180,7.0,14.0,61,0.00,,,0.00,meteohub,2013-07-28 10:43:00,
2013-07-28 12:58:00,86.5,72.0,29.90,South,180,8.0,14.0,62,0.00,,,0.00,meteohub,2013-07-28 10:58:00,
2013-07-28 13:14:00,87.1,73.0,29.91,SSW,203,8.0,16.0,63,0.00,,,0.00,meteohub,2013-07-28 11:14:00,
2013-07-28 13:29:00,87.4,73.6,29.91,SSE,158,8.0,12.0,63,0.00,,,0.00,meteohub,2013-07-28 11:29:00,
2013-07-28 13:45:00,86.2,73.8,29.91,SSW,203,10.0,17.0,66,0.00,,,0.00,meteohub,2013-07-28 11:45:00,
2013-07-28 14:00:00,86.9,73.4,29.91,South,180,9.0,15.0,64,0.00,,,0.00,meteohub,2013-07-28 12:00:00,
2013-07-28 14:16:00,86.2,72.5,29.91,South,180,6.0,16.0,63,0.00,,,0.00,meteohub,2013-07-28 12:16:00,
2013-07-28 14:32:00,86.2,72.7,29.92,South,180,5.0,13.0,64,0.00,,,0.00,meteohub,2013-07-28 12:32:00,
2013-07-28 14:48:00,85.8,70.9,29.92,SSE,158,10.0,15.0,61,0.00,,,0.00,meteohub,2013-07-28 12:48:00,
2013-07-28 15:03:00,85.6,71.1,29.92,SSW,203,6.0,17.0,62,0.00,,,0.00,meteohub,2013-07-28 13:03:00,
2013-07-28 15:19:00,85.8,71.2,29.92,SSW,203,7.0,14.0,62,0.00,,,0.00,meteohub,2013-07-28 13:19:00,
2013-07-28 15:34:00,85.3,70.7,29.92,South,180,7.0,17.0,62,0.00,,,0.00,meteohub,2013-07-28 13:34:00,
2013-07-28 15:50:00,86.5,70.9,29.92,SSW,203,7.0,13.0,59,0.00,,,0.00,meteohub,2013-07-28 13:50:00,
2013-07-28 16:05:00,86.5,70.3,29.92,SSW,203,7.0,13.0,58,0.00,,,0.00,meteohub,2013-07-28 14:05:00,
2013-07-28 16:21:00,87.3,69.6,29.92,SW,225,8.0,13.0,56,0.00,,,0.00,meteohub,2013-07-28 14:21:00,
2013-07-28 16:36:00,86.7,69.8,29.92,South,180,8.0,14.0,57,0.00,,,0.00,meteohub,2013-07-28 14:36:00,
2013-07-28 16:52:00,86.4,69.3,29.93,South,180,8.0,14.0,57,0.00,,,0.00,meteohub,2013-07-28 14:52:00,
2013-07-28 17:07:00,85.5,68.9,29.92,SSW,203,8.0,15.0,57,0.00,,,0.00,meteohub,2013-07-28 15:07:00,
2013-07-28 17:22:00,85.5,67.5,29.92,South,180,8.0,17.0,55,0.00,,,0.00,meteohub,2013-07-28 15:22:00,
2013-07-28 17:38:00,84.9,67.1,29.92,South,180,9.0,15.0,55,0.00,,,0.00,meteohub,2013-07-28 15:38:00,
2013-07-28 17:52:00,84.7,66.4,29.92,SSE,158,8.0,15.0,54,0.00,,,0.00,meteohub,2013-07-28 15:52:00,
2013-07-28 18:08:00,84.6,67.5,29.92,South,180,5.0,15.0,56,0.00,,,0.00,meteohub,2013-07-28 16:08:00,
2013-07-28 18:23:00,84.0,66.4,29.92,SSW,203,8.0,12.0,55,0.00,,,0.00,meteohub,2013-07-28 16:23:00,
2013-07-28 18:38:00,83.7,66.6,29.92,SSW,203,8.0,13.0,56,0.00,,,0.00,meteohub,2013-07-28 16:38:00,
2013-07-28 18:54:00,82.8,66.9,29.92,SW,225,6.0,15.0,58,0.00,,,0.00,meteohub,2013-07-28 16:54:00,
2013-07-28 19:09:00,82.6,67.3,29.92,SSW,203,5.0,11.0,60,0.00,,,0.00,meteohub,2013-07-28 17:09:00,
2013-07-28 19:24:00,82.6,67.8,29.93,SSW,203,7.0,10.0,61,0.00,,,0.00,meteohub,2013-07-28 17:24:00,
2013-07-28 19:40:00,81.9,67.8,29.93,SSW,203,6.0,10.0,62,0.00,,,0.00,meteohub,2013-07-28 17:40:00,
2013-07-28 19:55:00,80.4,67.8,29.93,South,180,4.0,11.0,65,0.00,,,0.00,meteohub,2013-07-28 17:55:00,
2013-07-28 20:11:00,80.2,66.7,29.93,South,180,5.0,9.0,63,0.00,,,0.00,meteohub,2013-07-28 18:11:00,
2013-07-28 20:27:00,79.9,68.4,29.94,South,180,6.0,11.0,68,0.00,,,0.00,meteohub,2013-07-28 18:27:00,
2013-07-28 20:42:00,79.0,68.7,29.94,SSW,203,6.0,13.0,71,0.00,,,0.00,meteohub,2013-07-28 18:42:00,
2013-07-28 20:58:00,78.6,69.1,29.94,SSW,203,4.0,8.0,72,0.00,,,0.00,meteohub,2013-07-28 18:58:00,
2013-07-28 21:13:00,78.3,69.6,29.95,South,180,2.0,6.0,75,0.00,,,0.00,meteohub,2013-07-28 19:13:00,
2013-07-28 21:28:00,78.1,70.2,29.96,SSW,203,4.0,7.0,76,0.00,,,0.00,meteohub,2013-07-28 19:28:00,
2013-07-28 21:44:00,77.5,70.9,29.96,SSW,203,3.0,8.0,80,0.00,,,0.00,meteohub,2013-07-28 19:44:00,
2013-07-28 21:59:00,77.5,70.5,29.97,SSW,203,5.0,9.0,79,0.00,,,0.00,meteohub,2013-07-28 19:59:00,
2013-07-28 22:15:00,77.4,70.0,29.99,SSW,203,4.0,7.0,78,0.00,,,0.00,meteohub,2013-07-28 20:15:00,
2013-07-28 22:30:00,77.4,70.3,30.00,SW,225,4.0,6.0,79,0.00,,,0.00,meteohub,2013-07-28 20:30:00,
2013-07-28 22:45:00,77.2,69.4,30.01,SW,225,5.0,9.0,77,0.00,,,0.00,meteohub,2013-07-28 20:45:00,
2013-07-28 23:01:00,77.2,69.8,30.02,SSW,203,4.0,8.0,78,0.00,,,0.00,meteohub,2013-07-28 21:01:00,
2013-07-28 23:16:00,76.8,70.3,30.02,SW,225,4.0,10.0,80,0.00,,,0.00,meteohub,2013-07-28 21:16:00,
2013-07-28 23:32:00,76.8,70.5,30.02,SW,225,3.0,6.0,81,0.00,,,0.00,meteohub,2013-07-28 21:32:00,
2013-07-28 23:47:00,76.6,70.3,30.02,SW,225,5.0,9.0,81,0.00,,,0.00,meteohub,2013-07-28 21:47:00,